Fairfield, IL

7:55 PM CST on November 22, 2019 (GMT -0600)
Fairfield Municipal

Weather History for KFWC - October, 2019

Change the Weather History Date:

Tuesday, October 22, 2019

  Actual Average (KEVV) Record (KEVV)
Temperature  
Mean Temperature 50 °F -  
Max Temperature 61 °F 67 °F 90 °F (1963)
Min Temperature 37 °F 42 °F 21 °F (1952)
Degree Days  
Heating Degree Days 16    
Moisture  
Dew Point 37 °F    
Average Humidity 60    
Maximum Humidity 95    
Minimum Humidity 33    
Precipitation  
Precipitation 0.00 in - - ()
Sea Level Pressure  
Sea Level Pressure 29.88 in    
Wind  
Wind Speed 4 mph ()    
Max Wind Speed 13 mph    
Max Gust Speed 18 mph    
Visibility 10.0 miles    
Events      
Averages and records for this station are not official NWS values.
T = Trace of Precipitation, MM = Missing Value Source: Averaged Metar Reports

Daily Weather History Graph

Daily Weather History Graph

Search for Another Location

Airport or City:

Astronomy

Oct. 22, 2019 Rise Set
Actual Time 7:09 AM CDT 6:06 PM CDT
Civil Twilight 6:42 AM CDT 6:33 PM CDT
Nautical Twilight 6:11 AM CDT 7:04 PM CDT
Astronomical Twilight 5:40 AM CDT 7:34 PM CDT
Moon 12:25 AM CDT (10/22) 3:09 PM CDT (10/22)
Length of Visible Light 11h 50m
Length of Day
10h 57m
Last Quarter, 37% of the Moon is Illuminated
Oct 22
Last Quarter
Oct 27
New
Nov 4
First Quarter
Nov 12
Full
Nov 19
Last Quarter

Hourly Weather History & Observations

Time (CDT) Temp. Windchill Dew Point Humidity Pressure Visibility Wind Dir Wind Speed Gust Speed Precip Events Conditions
12:15 AM 52.0 °F - 43.2 °F 72% 29.79 in 10.0 mi Calm Calm - N/A   Clear
12:35 AM 53.1 °F - 42.8 °F 68% 29.79 in 10.0 mi SSW 3.5 mph - N/A   Clear
12:55 AM 52.0 °F - 42.8 °F 71% 29.78 in 10.0 mi SSW 3.5 mph - N/A   Clear
1:15 AM 51.3 °F - 42.3 °F 71% 29.77 in 10.0 mi Calm Calm - N/A   Clear
1:35 AM 50.4 °F - 42.3 °F 74% 29.77 in 10.0 mi South 3.5 mph - N/A   Clear
1:55 AM 49.5 °F - 42.1 °F 76% 29.77 in 10.0 mi South 3.5 mph - N/A   Clear
2:15 AM 49.6 °F - 41.9 °F 75% 29.77 in 10.0 mi SSW 4.6 mph - N/A   Clear
2:35 AM 50.0 °F - 41.4 °F 72% 29.77 in 10.0 mi SSW 4.6 mph - N/A   Clear
2:55 AM 50.2 °F - 40.8 °F 70% 29.77 in 10.0 mi SW 5.8 mph - N/A   Clear
3:15 AM 50.0 °F - 40.5 °F 70% 29.77 in 10.0 mi SW 5.8 mph - N/A   Clear
3:35 AM 50.2 °F - 39.7 °F 67% 29.77 in 10.0 mi SW 3.5 mph - N/A   Clear
3:55 AM 50.0 °F - 39.9 °F 68% 29.78 in 10.0 mi SW 5.8 mph - N/A   Clear
4:15 AM 49.5 °F - 39.9 °F 70% 29.78 in 10.0 mi SSW 4.6 mph - N/A   Clear
4:35 AM 49.5 °F - 39.6 °F 69% 29.79 in 10.0 mi SW 6.9 mph - N/A   Clear
4:55 AM 50.2 °F - 38.8 °F 65% 29.79 in 10.0 mi WSW 5.8 mph - N/A   Clear
5:35 AM 48.0 °F - 39.4 °F 72% 29.80 in 10.0 mi SW 4.6 mph - N/A   Clear
5:55 AM 47.5 °F - 39.2 °F 73% 29.81 in 10.0 mi SSW 3.5 mph - N/A   Clear
6:15 AM 46.8 °F - 39.2 °F 75% 29.81 in 10.0 mi SW 3.5 mph - N/A   Clear
6:35 AM 46.9 °F - 39.2 °F 74% 29.82 in 10.0 mi SW 3.5 mph - N/A   Clear
6:55 AM 46.8 °F - 39.2 °F 75% 29.82 in 10.0 mi SSW 3.5 mph - N/A   Clear
7:15 AM 46.4 °F 44.3 °F 39.2 °F 76% 29.83 in 10.0 mi SW 4.6 mph - N/A   Clear
7:35 AM 47.1 °F - 39.4 °F 74% 29.84 in 10.0 mi SW 6.9 mph - N/A   Clear
7:55 AM 49.1 °F - 39.4 °F 69% 29.84 in 10.0 mi SW 6.9 mph - N/A   Clear
8:15 AM 50.2 °F - 39.4 °F 66% 29.84 in 10.0 mi SW 6.9 mph - N/A   Clear
8:35 AM 50.9 °F - 39.6 °F 65% 29.85 in 10.0 mi SW 6.9 mph - N/A   Clear
8:55 AM 51.8 °F - 39.7 °F 63% 29.86 in 10.0 mi WSW 8.1 mph - N/A   Clear
9:15 AM 52.7 °F - 40.1 °F 62% 29.87 in 10.0 mi WSW 8.1 mph - N/A   Clear
9:35 AM 53.4 °F - 39.6 °F 59% 29.87 in 10.0 mi WSW 9.2 mph 17.3 mph N/A   Clear
9:55 AM 54.0 °F - 39.9 °F 59% 29.87 in 10.0 mi WSW 10.4 mph - N/A   Clear
10:15 AM 54.1 °F - 39.7 °F 58% 29.88 in 10.0 mi SW 9.2 mph - N/A   Clear
10:35 AM 54.7 °F - 40.1 °F 58% 29.88 in 10.0 mi SW 10.4 mph - N/A   Clear
10:55 AM 55.6 °F - 40.3 °F 56% 29.89 in 10.0 mi SW 8.1 mph - N/A   Scattered Clouds
11:15 AM 55.8 °F - 39.9 °F 55% 29.89 in 10.0 mi SW 8.1 mph - N/A   Scattered Clouds
11:35 AM 56.7 °F - 40.1 °F 54% 29.89 in 10.0 mi WSW 6.9 mph - N/A   Scattered Clouds
11:55 AM 56.8 °F - 39.4 °F 52% 29.90 in 10.0 mi WSW 9.2 mph 16.1 mph N/A   Scattered Clouds
12:15 PM 57.4 °F - 39.7 °F 52% 29.90 in 10.0 mi SW 8.1 mph - N/A   Scattered Clouds
12:35 PM 57.9 °F - 38.8 °F 49% 29.89 in 10.0 mi West 6.9 mph - N/A   Scattered Clouds
12:55 PM 58.1 °F - 38.7 °F 48% 29.88 in 10.0 mi WSW 12.7 mph 18.4 mph N/A   Clear
1:15 PM 58.8 °F - 38.7 °F 47% 29.88 in 10.0 mi WSW 9.2 mph - N/A   Clear
1:35 PM 59.0 °F - 38.3 °F 46% 29.88 in 10.0 mi SW 10.4 mph 17.3 mph N/A   Clear
1:55 PM 59.9 °F - 38.5 °F 45% 29.88 in 10.0 mi WSW 11.5 mph - N/A   Clear
2:15 PM 60.3 °F - 38.1 °F 44% 29.87 in 10.0 mi SW 9.2 mph 17.3 mph N/A   Scattered Clouds
2:35 PM 60.4 °F - 38.1 °F 44% 29.87 in 10.0 mi WSW 8.1 mph - N/A   Scattered Clouds
3:15 PM 60.6 °F - 36.9 °F 41% 29.88 in 10.0 mi WSW 6.9 mph - N/A   Clear
3:35 PM 60.6 °F - 36.5 °F 41% 29.88 in 10.0 mi WSW 9.2 mph - N/A   Clear
3:55 PM 60.8 °F - 36.5 °F 40% 29.89 in 10.0 mi WSW 5.8 mph - N/A   Clear
4:15 PM 61.0 °F - 36.5 °F 40% 29.89 in 10.0 mi WSW 5.8 mph - N/A   Clear
4:35 PM 60.4 °F - 34.7 °F 38% 29.89 in 10.0 mi WSW 4.6 mph - N/A   Scattered Clouds
4:55 PM 60.3 °F - 33.3 °F 36% 29.90 in 10.0 mi WSW 6.9 mph - N/A   Scattered Clouds
5:15 PM 59.5 °F - 32.0 °F 35% 29.90 in 10.0 mi WSW 4.6 mph - N/A   Clear
5:35 PM 59.0 °F - 29.5 °F 33% 29.91 in 10.0 mi WSW 8.1 mph - N/A   Clear
5:55 PM 57.6 °F - 29.3 °F 34% 29.91 in 10.0 mi WSW 4.6 mph - N/A   Clear
6:15 PM 55.9 °F - 29.1 °F 36% 29.92 in 10.0 mi WSW 4.6 mph - N/A   Clear
6:35 PM 54.5 °F - 28.9 °F 38% 29.93 in 10.0 mi WSW 3.5 mph - N/A   Clear
6:55 PM 52.9 °F - 29.1 °F 40% 29.94 in 10.0 mi WSW 3.5 mph - N/A   Clear
7:15 PM 53.1 °F - 28.8 °F 39% 29.95 in 10.0 mi WSW 3.5 mph - N/A   Clear
7:35 PM 52.3 °F - 28.8 °F 40% 29.96 in 10.0 mi Calm Calm - N/A   Clear
7:55 PM 48.7 °F - 31.3 °F 51% 29.97 in 10.0 mi Calm Calm - N/A   Clear
8:15 PM 45.9 °F - 32.5 °F 60% 29.97 in 10.0 mi Calm Calm - N/A   Clear
8:35 PM 44.4 °F - 32.4 °F 63% 29.97 in 10.0 mi Calm Calm - N/A   Clear
8:55 PM 42.4 °F - 33.8 °F 71% 29.99 in 10.0 mi Calm Calm - N/A   Clear
9:15 PM 42.1 °F - 34.3 °F 74% 29.99 in 10.0 mi Calm Calm - N/A   Clear
9:35 PM 41.5 °F - 34.2 °F 75% 30.00 in 10.0 mi Calm Calm - N/A   Clear
9:55 PM 45.1 °F - 32.0 °F 60% 30.01 in 10.0 mi Calm Calm - N/A   Clear
10:15 PM 43.5 °F - 32.4 °F 65% 30.01 in 10.0 mi Calm Calm - N/A   Clear
10:35 PM 40.3 °F - 34.0 °F 78% 30.02 in 10.0 mi Calm Calm - N/A   Clear
10:55 PM 39.2 °F - 34.2 °F 82% 30.01 in 10.0 mi Calm Calm - N/A   Clear
11:15 PM 38.8 °F - 35.1 °F 86% 30.01 in 10.0 mi Calm Calm - N/A   Clear
11:35 PM 38.3 °F - 35.2 °F 89% 30.02 in 10.0 mi Calm Calm - N/A   Clear
11:50 PM 37.8 °F - 36.3 °F 95% 30.02 in 10.0 mi Calm Calm - N/A   Clear